Hourly Data Report for November 13, 2019

SHEARWATER RCS
NOVA SCOTIA
Current Station Operator: ECCC - MSC

44°37'47.000" N
63°30'48.000" W
24.00 m
8205092
71264
AAW

Download Data

Hourly Data (November 2019)
Hourly Data Report for November 13, 2019
TIME
LST
Temp Definition
°C
Dew Point Definition
°C
Rel Hum Definition
%
Precip. Amount Definition
mm

Wind Dir Definition
10's deg

Wind Spd Definition
km/h
Visibility Definition
km
Stn Press Definition
kPa
Hmdx Definition


Wind Chill Definition


Weather Definition


00:00 11.5 10.6 94 0.3 21 15   99.74     LegendNANA
01:00 8.6 7.3 92 0.8 28 14   99.75     LegendNANA
02:00 6.9 5.3 89 1.0 28 16   99.85     LegendNANA
03:00 3.6 2.0 89 1.0 29 14   99.93     LegendNANA
04:00 1.9 0.0 87 1.4 29 16   99.94     LegendNANA
05:00 0.2 -1.9 86 1.5 30 17   99.99     LegendNANA
06:00 -0.5 -2.5 86 0.6 29 18   100.07   -6 LegendNANA
07:00 -1.1 -4.6 77 0.0 29 19   100.13   -6 LegendNANA
08:00 -1.6 -5.3 76 0.0 29 20   100.23   -7 LegendNANA
09:00 -1.8 -5.5 76 0.0 29 17   100.31   -7 LegendNANA
10:00 -2.4 -8.1 65 0.0 28 21   100.38   -8 LegendNANA
11:00 -2.8 -6.9 73 0.0 29 17   100.47   -8 LegendNANA
12:00 -2.7 -9.1 61 0.0 28 24   100.52   -9 LegendNANA
13:00 -2.5 -8.7 62 0.0 29 23   100.59   -9 LegendNANA
14:00 -1.7 -8.5 60 0.0 28 22   100.61   -8 LegendNANA
15:00 -2.2 -8.8 61 0.0 28 24   100.79   -9 LegendNANA
16:00 -2.5 -8.3 64 0.0 29 21   100.97   -9 LegendNANA
17:00 -2.9 -8.5 65 0.0 29 21   101.14   -9 LegendNANA
18:00 -3.3 -7.8 71 0.0 29 20   101.34   -9 LegendNANA
19:00 -3.3 -7.3 74 0.0 30 20   101.47   -9 LegendNANA
20:00 -3.3 -7.7 71 0.0 30 21   101.60   -10 LegendNANA
21:00 -3.4 -7.9 71 0.0 30 19   101.73   -9 LegendNANA
22:00 -3.6 -10.2 60 0.0 32 23   101.86   -10 LegendNANA
23:00 -4.2 -10.3 63 0.0 32 16   101.96   -10 LegendNANA

Notes on Data Quality.

Legend

  • E = Estimated
  • M = Missing
  • NA = Not Available*
  • [empty] = Indicates an unobserved value
Date modified: